Time,TemperatureF,DewpointF,PressureIn,WindDirection,WindDirectionDegrees,WindSpeedMPH,WindSpeedGustMPH,Humidity,HourlyPrecipIn,Conditions,Clouds,dailyrainin,SoftwareType,DateUTC
2013-05-15 00:05:00,39.0,32.7,30.06,West,270,0.0,0.0,78,0.00,,,0.00,Weather View 32 v70,2013-05-15 04:05:00,
2013-05-15 00:09:00,39.0,33.0,30.05,WNW,292,0.0,0.0,79,0.00,,,0.00,Weather View 32 v70,2013-05-15 04:09:00,
2013-05-15 00:19:00,38.0,32.1,30.06,West,270,0.0,0.0,79,0.00,,,0.00,Weather View 32 v70,2013-05-15 04:19:00,
2013-05-15 00:29:00,38.0,32.4,30.05,WNW,292,0.0,0.0,80,0.00,,,0.00,Weather View 32 v70,2013-05-15 04:29:00,
2013-05-15 00:39:00,38.0,32.7,30.06,WNW,292,0.0,0.0,81,0.00,,,0.00,Weather View 32 v70,2013-05-15 04:39:00,
2013-05-15 00:44:00,38.0,32.7,30.06,WSW,248,0.0,0.0,81,0.00,,,0.00,Weather View 32 v70,2013-05-15 04:44:00,
2013-05-15 00:54:00,37.0,32.0,30.06,WNW,292,0.0,0.0,82,0.00,,,0.00,Weather View 32 v70,2013-05-15 04:54:00,
2013-05-15 01:00:00,37.0,32.3,30.06,WNW,292,0.0,0.0,83,0.00,,,0.00,Weather View 32 v70,2013-05-15 05:00:00,
2013-05-15 01:09:00,37.0,32.6,30.05,WNW,292,0.0,0.0,84,0.00,,,0.00,Weather View 32 v70,2013-05-15 05:09:00,
2013-05-15 01:20:00,36.0,31.6,30.05,WNW,292,0.0,0.0,84,0.00,,,0.00,Weather View 32 v70,2013-05-15 05:20:00,
2013-05-15 01:29:00,36.0,31.9,30.06,West,270,0.0,0.0,85,0.00,,,0.00,Weather View 32 v70,2013-05-15 05:29:00,
2013-05-15 01:40:00,36.0,31.9,30.06,WNW,292,0.0,0.0,85,0.00,,,0.00,Weather View 32 v70,2013-05-15 05:40:00,
2013-05-15 01:49:00,36.0,32.2,30.05,West,270,0.0,0.0,86,0.00,,,0.00,Weather View 32 v70,2013-05-15 05:49:00,
2013-05-15 01:54:00,36.0,32.2,30.06,WNW,292,0.0,0.0,86,0.00,,,0.00,Weather View 32 v70,2013-05-15 05:54:00,
2013-05-15 02:04:00,36.0,32.5,30.05,WSW,248,0.0,0.0,87,0.00,,,0.00,Weather View 32 v70,2013-05-15 06:04:00,
2013-05-15 02:10:00,35.0,31.5,30.05,WNW,292,0.0,0.0,87,0.00,,,0.00,Weather View 32 v70,2013-05-15 06:10:00,
2013-05-15 02:19:00,35.0,31.8,30.06,WNW,292,0.0,0.0,88,0.00,,,0.00,Weather View 32 v70,2013-05-15 06:19:00,
2013-05-15 02:30:00,35.0,32.1,30.06,WSW,248,0.0,0.0,89,0.00,,,0.00,Weather View 32 v70,2013-05-15 06:30:00,
2013-05-15 02:39:00,35.0,32.1,30.06,WSW,248,0.0,1.0,89,0.00,,,0.00,Weather View 32 v70,2013-05-15 06:39:00,
2013-05-15 02:44:00,35.0,32.4,30.06,WNW,292,0.0,1.0,90,0.00,,,0.00,Weather View 32 v70,2013-05-15 06:44:00,
2013-05-15 02:54:00,35.0,32.6,30.06,WNW,292,0.0,1.0,91,0.00,,,0.00,Weather View 32 v70,2013-05-15 06:54:00,
2013-05-15 03:04:00,35.0,32.6,30.05,WNW,292,0.0,1.0,91,0.00,,,0.00,Weather View 32 v70,2013-05-15 07:04:00,
2013-05-15 03:14:00,34.0,31.9,30.06,West,270,0.0,1.0,92,0.00,,,0.00,Weather View 32 v70,2013-05-15 07:14:00,
2013-05-15 03:24:00,34.0,32.2,30.06,WNW,292,0.0,1.0,93,0.00,,,0.00,Weather View 32 v70,2013-05-15 07:24:00,
2013-05-15 03:34:00,34.0,32.2,30.05,WNW,292,0.0,1.0,93,0.00,,,0.00,Weather View 32 v70,2013-05-15 07:34:00,
2013-05-15 03:44:00,34.0,32.2,30.06,WNW,292,0.0,1.0,93,0.00,,,0.00,Weather View 32 v70,2013-05-15 07:44:00,
2013-05-15 03:49:00,34.0,32.5,30.06,WNW,292,0.0,1.0,94,0.00,,,0.00,Weather View 32 v70,2013-05-15 07:49:00,
2013-05-15 03:55:00,34.0,32.5,30.05,West,270,0.0,1.0,94,0.00,,,0.00,Weather View 32 v70,2013-05-15 07:55:00,
2013-05-15 04:04:00,33.0,31.5,30.05,WNW,292,0.0,1.0,94,0.00,,,0.00,Weather View 32 v70,2013-05-15 08:04:00,
2013-05-15 04:15:00,33.0,31.7,30.06,WNW,292,0.0,1.0,95,0.00,,,0.00,Weather View 32 v70,2013-05-15 08:15:00,
2013-05-15 04:19:00,33.0,31.7,30.06,WNW,292,0.0,0.0,95,0.00,,,0.00,Weather View 32 v70,2013-05-15 08:19:00,
2013-05-15 04:29:00,33.0,31.7,30.06,West,270,0.0,0.0,95,0.00,,,0.00,Weather View 32 v70,2013-05-15 08:29:00,
2013-05-15 04:40:00,33.0,31.7,30.06,WNW,292,0.0,0.0,95,0.00,,,0.00,Weather View 32 v70,2013-05-15 08:40:00,
2013-05-15 04:49:00,33.0,31.7,30.06,WNW,292,0.0,0.0,95,0.00,,,0.00,Weather View 32 v70,2013-05-15 08:49:00,
2013-05-15 04:54:00,32.0,30.7,30.06,WNW,292,0.0,0.0,95,0.00,,,0.00,Weather View 32 v70,2013-05-15 08:54:00,
2013-05-15 05:04:00,32.0,30.7,30.06,WNW,292,0.0,0.0,95,0.00,,,0.00,Weather View 32 v70,2013-05-15 09:04:00,
2013-05-15 05:09:00,32.0,30.7,30.06,WNW,292,0.0,0.0,95,0.00,,,0.00,Weather View 32 v70,2013-05-15 09:09:00,
2013-05-15 05:20:00,32.0,31.0,30.06,WNW,292,0.0,0.0,96,0.00,,,0.00,Weather View 32 v70,2013-05-15 09:20:00,
2013-05-15 05:24:00,32.0,31.0,30.07,WNW,292,0.0,0.0,96,0.00,,,0.00,Weather View 32 v70,2013-05-15 09:24:00,
2013-05-15 05:34:00,32.0,31.2,30.06,WNW,292,0.0,0.0,97,0.00,,,0.00,Weather View 32 v70,2013-05-15 09:34:00,
2013-05-15 05:39:00,32.0,31.2,30.06,WNW,292,0.0,0.0,97,0.00,,,0.00,Weather View 32 v70,2013-05-15 09:39:00,
2013-05-15 05:45:00,32.0,31.2,30.06,West,270,0.0,0.0,97,0.00,,,0.00,Weather View 32 v70,2013-05-15 09:45:00,
2013-05-15 05:54:00,33.0,32.5,30.06,WNW,292,0.0,0.0,98,0.00,,,0.00,Weather View 32 v70,2013-05-15 09:54:00,
2013-05-15 06:00:00,33.0,32.5,30.07,WNW,292,0.0,0.0,98,0.00,,,0.00,Weather View 32 v70,2013-05-15 10:00:00,
2013-05-15 06:09:00,33.0,32.7,30.07,WNW,292,0.0,0.0,99,0.00,,,0.00,Weather View 32 v70,2013-05-15 10:09:00,
2013-05-15 06:19:00,34.0,34.0,30.07,WNW,292,0.0,0.0,100,0.00,,,0.00,Weather View 32 v70,2013-05-15 10:19:00,
2013-05-15 06:25:00,34.0,34.0,30.07,SSW,202,0.0,1.0,100,0.00,,,0.00,Weather View 32 v70,2013-05-15 10:25:00,
2013-05-15 06:29:00,35.0,35.0,30.07,SSE,158,0.0,1.0,100,0.00,,,0.00,Weather View 32 v70,2013-05-15 10:29:00,
2013-05-15 06:34:00,35.0,35.0,30.06,WNW,292,0.0,2.0,100,0.00,,,0.00,Weather View 32 v70,2013-05-15 10:34:00,
2013-05-15 06:44:00,36.0,36.0,30.06,SSW,202,0.0,2.0,100,0.00,,,0.00,Weather View 32 v70,2013-05-15 10:44:00,
2013-05-15 06:49:00,36.0,36.0,30.06,SW,225,0.0,2.0,100,0.00,,,0.00,Weather View 32 v70,2013-05-15 10:49:00,
2013-05-15 06:59:00,37.0,37.0,30.06,SW,225,0.0,2.0,100,0.00,,,0.00,Weather View 32 v70,2013-05-15 10:59:00,
2013-05-15 07:14:00,38.0,38.0,30.06,SW,225,0.0,3.0,100,0.00,,,0.00,Weather View 32 v70,2013-05-15 11:14:00,
2013-05-15 07:24:00,39.0,39.0,30.06,South,180,1.0,3.0,100,0.00,,,0.00,Weather View 32 v70,2013-05-15 11:24:00,
2013-05-15 07:29:00,39.0,38.7,30.06,SSE,158,2.0,3.0,99,0.00,,,0.00,Weather View 32 v70,2013-05-15 11:29:00,
2013-05-15 07:40:00,42.0,40.7,30.06,South,180,1.0,3.0,95,0.00,,,0.00,Weather View 32 v70,2013-05-15 11:40:00,
2013-05-15 07:46:00,43.0,40.8,30.06,SE,135,0.0,3.0,92,0.00,,,0.00,Weather View 32 v70,2013-05-15 11:46:00,
2013-05-15 07:54:00,44.0,40.7,30.06,SE,135,1.0,3.0,88,0.00,,,0.00,Weather View 32 v70,2013-05-15 11:54:00,
2013-05-15 08:04:00,46.0,40.8,30.06,SE,135,1.0,3.0,82,0.00,,,0.00,Weather View 32 v70,2013-05-15 12:04:00,
2013-05-15 08:15:00,47.0,39.8,30.05,SSE,158,1.0,3.0,76,0.00,,,0.00,Weather View 32 v70,2013-05-15 12:15:00,
2013-05-15 08:24:00,47.0,39.1,30.05,SSW,202,1.0,5.0,74,0.00,,,0.00,Weather View 32 v70,2013-05-15 12:24:00,
2013-05-15 08:34:00,47.0,39.1,30.05,WNW,292,0.0,5.0,74,0.00,,,0.00,Weather View 32 v70,2013-05-15 12:34:00,
2013-05-15 08:45:00,47.0,38.8,30.04,SSE,158,3.0,5.0,73,0.00,,,0.00,Weather View 32 v70,2013-05-15 12:45:00,
2013-05-15 08:54:00,49.0,38.1,30.04,South,180,9.0,10.0,66,0.00,,,0.00,Weather View 32 v70,2013-05-15 12:54:00,
2013-05-15 08:59:00,50.0,35.8,30.03,SSW,202,4.0,10.0,58,0.00,,,0.00,Weather View 32 v70,2013-05-15 12:59:00,
2013-05-15 09:09:00,52.0,36.3,30.03,South,180,11.0,11.0,55,0.00,,,0.00,Weather View 32 v70,2013-05-15 13:09:00,
2013-05-15 09:24:00,55.0,34.6,30.02,SSW,202,1.0,11.0,46,0.00,,,0.00,Weather View 32 v70,2013-05-15 13:24:00,
2013-05-15 09:29:00,55.0,36.2,30.02,South,180,2.0,11.0,49,0.00,,,0.00,Weather View 32 v70,2013-05-15 13:29:00,
2013-05-15 09:34:00,55.0,36.7,30.02,South,180,10.0,11.0,50,0.00,,,0.00,Weather View 32 v70,2013-05-15 13:34:00,
2013-05-15 09:47:00,57.0,34.7,30.01,West,270,3.0,11.0,43,0.00,,,0.00,Weather View 32 v70,2013-05-15 13:47:00,
2013-05-15 09:54:00,57.0,34.1,30.01,SE,135,3.0,11.0,42,0.00,,,0.00,Weather View 32 v70,2013-05-15 13:54:00,
2013-05-15 10:04:00,56.0,34.3,30.00,SSW,202,10.0,11.0,44,0.00,,,0.00,Weather View 32 v70,2013-05-15 14:04:00,
2013-05-15 10:19:00,57.0,34.1,29.99,SSW,202,7.0,11.0,42,0.00,,,0.00,Weather View 32 v70,2013-05-15 14:19:00,
2013-05-15 10:29:00,57.0,32.2,30.00,South,180,6.0,12.0,39,0.00,,,0.00,Weather View 32 v70,2013-05-15 14:29:00,
2013-05-15 10:34:00,57.0,34.1,29.99,SSE,158,2.0,12.0,42,0.00,,,0.00,Weather View 32 v70,2013-05-15 14:34:00,
2013-05-15 10:44:00,58.0,35.0,29.99,South,180,1.0,12.0,42,0.00,,,0.00,Weather View 32 v70,2013-05-15 14:44:00,
2013-05-15 10:54:00,58.0,33.8,29.99,SSE,158,3.0,13.0,40,0.00,,,0.00,Weather View 32 v70,2013-05-15 14:54:00,
2013-05-15 11:09:00,59.0,34.7,29.99,WNW,292,5.0,21.0,40,0.00,,,0.00,Weather View 32 v70,2013-05-15 15:09:00,
2013-05-15 11:14:00,59.0,33.4,29.98,WSW,248,6.0,21.0,38,0.00,,,0.00,Weather View 32 v70,2013-05-15 15:14:00,
2013-05-15 11:19:00,59.0,34.0,29.97,SSE,158,7.0,21.0,39,0.00,,,0.00,Weather View 32 v70,2013-05-15 15:19:00,
2013-05-15 11:30:00,60.0,32.9,29.97,South,180,7.0,21.0,36,0.00,,,0.00,Weather View 32 v70,2013-05-15 15:30:00,
2013-05-15 11:39:00,60.0,35.6,29.96,SE,135,3.0,21.0,40,0.00,,,0.00,Weather View 32 v70,2013-05-15 15:39:00,
2013-05-15 11:44:00,60.0,34.3,29.97,WNW,292,5.0,21.0,38,0.00,,,0.00,Weather View 32 v70,2013-05-15 15:44:00,
2013-05-15 11:49:00,60.0,34.9,29.96,WSW,248,4.0,21.0,39,0.00,,,0.00,Weather View 32 v70,2013-05-15 15:49:00,
2013-05-15 11:54:00,61.0,35.2,29.96,SSE,158,5.0,21.0,38,0.00,,,0.00,Weather View 32 v70,2013-05-15 15:54:00,
2013-05-15 12:04:00,61.0,34.5,29.95,SE,135,1.0,21.0,37,0.00,,,0.00,Weather View 32 v70,2013-05-15 16:04:00,
2013-05-15 12:09:00,62.0,38.0,29.95,South,180,5.0,14.0,41,0.00,,,0.00,Weather View 32 v70,2013-05-15 16:09:00,
2013-05-15 12:15:00,62.0,38.0,29.94,SSE,158,1.0,14.0,41,0.00,,,0.00,Weather View 32 v70,2013-05-15 16:15:00,
2013-05-15 12:24:00,63.0,39.5,29.94,South,180,5.0,14.0,42,0.00,,,0.00,Weather View 32 v70,2013-05-15 16:24:00,
2013-05-15 12:29:00,63.0,37.6,29.94,South,180,7.0,14.0,39,0.00,,,0.00,Weather View 32 v70,2013-05-15 16:29:00,
2013-05-15 12:34:00,63.0,36.3,29.93,West,270,5.0,14.0,37,0.00,,,0.00,Weather View 32 v70,2013-05-15 16:34:00,
2013-05-15 12:44:00,64.0,38.5,29.93,SE,135,3.0,14.0,39,0.00,,,0.00,Weather View 32 v70,2013-05-15 16:44:00,
2013-05-15 12:59:00,63.0,37.6,29.92,South,180,6.0,14.0,39,0.00,,,0.00,Weather View 32 v70,2013-05-15 16:59:00,
2013-05-15 13:09:00,64.0,37.1,29.92,SSE,158,6.0,14.0,37,0.00,,,0.00,Weather View 32 v70,2013-05-15 17:09:00,
2013-05-15 13:20:00,64.0,37.8,29.91,WSW,248,4.0,14.0,38,0.00,,,0.00,Weather View 32 v70,2013-05-15 17:20:00,
2013-05-15 13:25:00,64.0,37.1,29.91,WSW,248,6.0,14.0,37,0.00,,,0.00,Weather View 32 v70,2013-05-15 17:25:00,
2013-05-15 13:34:00,65.0,36.6,29.90,SE,135,6.0,18.0,35,0.00,,,0.00,Weather View 32 v70,2013-05-15 17:34:00,
2013-05-15 13:39:00,65.0,36.6,29.89,South,180,2.0,18.0,35,0.00,,,0.00,Weather View 32 v70,2013-05-15 17:39:00,
2013-05-15 13:45:00,66.0,37.5,29.89,WNW,292,8.0,18.0,35,0.00,,,0.00,Weather View 32 v70,2013-05-15 17:45:00,
2013-05-15 13:50:00,66.0,36.8,29.89,SSW,202,6.0,18.0,34,0.00,,,0.00,Weather View 32 v70,2013-05-15 17:50:00,
2013-05-15 13:59:00,65.0,37.3,29.88,South,180,8.0,19.0,36,0.00,,,0.00,Weather View 32 v70,2013-05-15 17:59:00,
2013-05-15 14:04:00,64.0,37.8,29.88,South,180,8.0,19.0,38,0.00,,,0.00,Weather View 32 v70,2013-05-15 18:04:00,
2013-05-15 14:09:00,64.0,37.1,29.87,South,180,6.0,19.0,37,0.00,,,0.00,Weather View 32 v70,2013-05-15 18:09:00,
2013-05-15 14:19:00,64.0,37.1,29.86,South,180,10.0,21.0,37,0.00,,,0.00,Weather View 32 v70,2013-05-15 18:19:00,
2013-05-15 14:30:00,65.0,38.7,29.85,SSW,202,3.0,21.0,38,0.00,,,0.00,Weather View 32 v70,2013-05-15 18:30:00,
2013-05-15 14:39:00,65.0,38.7,29.86,SSE,158,14.0,21.0,38,0.00,,,0.00,Weather View 32 v70,2013-05-15 18:39:00,
2013-05-15 14:49:00,64.0,38.5,29.85,SSE,158,9.0,21.0,39,0.00,,,0.00,Weather View 32 v70,2013-05-15 18:49:00,
2013-05-15 14:54:00,65.0,40.7,29.84,SE,135,3.0,21.0,41,0.00,,,0.00,Weather View 32 v70,2013-05-15 18:54:00,
2013-05-15 15:04:00,64.0,41.0,29.82,South,180,8.0,21.0,43,0.00,,,0.00,Weather View 32 v70,2013-05-15 19:04:00,
2013-05-15 15:10:00,64.0,39.8,29.83,SSE,158,10.0,21.0,41,0.00,,,0.00,Weather View 32 v70,2013-05-15 19:10:00,
2013-05-15 15:19:00,64.0,40.4,29.83,SW,225,5.0,20.0,42,0.00,,,0.00,Weather View 32 v70,2013-05-15 19:19:00,
2013-05-15 15:29:00,63.0,40.1,29.84,SW,225,5.0,18.0,43,0.00,,,0.00,Weather View 32 v70,2013-05-15 19:29:00,
2013-05-15 15:40:00,63.0,43.0,29.83,South,180,2.0,18.0,48,0.00,,,0.00,Weather View 32 v70,2013-05-15 19:40:00,
2013-05-15 15:44:00,62.0,40.9,29.83,SE,135,1.0,16.0,46,0.00,,,0.00,Weather View 32 v70,2013-05-15 19:44:00,
2013-05-15 15:51:00,62.0,42.0,29.84,SSE,158,2.0,16.0,48,0.00,,,0.00,Weather View 32 v70,2013-05-15 19:51:00,
2013-05-15 15:59:00,60.0,42.8,29.83,WSW,248,3.0,16.0,53,0.00,,,0.00,Weather View 32 v70,2013-05-15 19:59:00,
2013-05-15 16:09:00,59.0,43.3,29.83,South,180,7.0,16.0,56,0.00,,,0.00,Weather View 32 v70,2013-05-15 20:09:00,
2013-05-15 16:14:00,59.0,43.8,29.83,SSE,158,6.0,16.0,57,0.00,,,0.00,Weather View 32 v70,2013-05-15 20:14:00,
2013-05-15 16:25:00,57.0,45.3,29.83,West,270,3.0,14.0,65,0.00,,,0.00,Weather View 32 v70,2013-05-15 20:25:00,
2013-05-15 16:34:00,55.0,46.5,29.85,SW,225,1.0,14.0,73,0.01,,,0.01,Weather View 32 v70,2013-05-15 20:34:00,
2013-05-15 16:39:00,54.0,47.6,29.84,WSW,248,3.0,14.0,79,0.02,,,0.02,Weather View 32 v70,2013-05-15 20:39:00,
2013-05-15 16:50:00,53.0,48.3,29.79,SE,135,4.0,14.0,84,0.03,,,0.03,Weather View 32 v70,2013-05-15 20:50:00,
2013-05-15 16:59:00,53.0,49.2,29.81,South,180,3.0,14.0,87,0.05,,,0.05,Weather View 32 v70,2013-05-15 20:59:00,
2013-05-15 17:04:00,52.0,48.5,29.81,SE,135,2.0,14.0,88,0.05,,,0.05,Weather View 32 v70,2013-05-15 21:04:00,
2013-05-15 17:14:00,52.0,49.2,29.81,SW,225,0.0,14.0,90,0.05,,,0.05,Weather View 32 v70,2013-05-15 21:14:00,
2013-05-15 17:25:00,51.0,49.3,29.79,SSE,158,0.0,8.0,94,0.07,,,0.07,Weather View 32 v70,2013-05-15 21:25:00,
2013-05-15 17:34:00,51.0,49.9,29.79,South,180,5.0,8.0,96,0.08,,,0.09,Weather View 32 v70,2013-05-15 21:34:00,
2013-05-15 17:44:00,51.0,50.5,29.77,SSW,202,5.0,8.0,98,0.08,,,0.10,Weather View 32 v70,2013-05-15 21:44:00,
2013-05-15 17:54:00,51.0,50.7,29.77,South,180,5.0,8.0,99,0.08,,,0.12,Weather View 32 v70,2013-05-15 21:54:00,
2013-05-15 18:09:00,50.0,50.0,29.76,WSW,248,3.0,13.0,100,0.07,,,0.12,Weather View 32 v70,2013-05-15 22:09:00,
2013-05-15 18:14:00,50.0,50.0,29.77,SE,135,1.0,13.0,100,0.07,,,0.12,Weather View 32 v70,2013-05-15 22:14:00,
2013-05-15 18:24:00,50.0,50.0,29.76,WSW,248,3.0,13.0,100,0.05,,,0.12,Weather View 32 v70,2013-05-15 22:24:00,
2013-05-15 18:29:00,50.0,50.0,29.76,South,180,1.0,13.0,100,0.04,,,0.12,Weather View 32 v70,2013-05-15 22:29:00,
2013-05-15 18:39:00,50.0,50.0,29.75,SE,135,3.0,13.0,100,0.03,,,0.12,Weather View 32 v70,2013-05-15 22:39:00,
2013-05-15 18:53:00,50.0,50.0,29.77,SSE,158,1.0,13.0,100,0.01,,,0.12,Weather View 32 v70,2013-05-15 22:53:00,
2013-05-15 18:59:00,50.0,50.0,29.76,WNW,292,0.0,13.0,100,0.00,,,0.12,Weather View 32 v70,2013-05-15 22:59:00,
2013-05-15 19:09:00,50.0,50.0,29.76,South,180,1.0,8.0,100,0.00,,,0.12,Weather View 32 v70,2013-05-15 23:09:00,
2013-05-15 19:19:00,49.0,49.0,29.75,South,180,4.0,7.0,100,0.00,,,0.12,Weather View 32 v70,2013-05-15 23:19:00,
2013-05-15 19:24:00,49.0,49.0,29.75,WSW,248,1.0,7.0,100,0.00,,,0.12,Weather View 32 v70,2013-05-15 23:24:00,
2013-05-15 19:34:00,49.0,49.0,29.75,SE,135,1.0,7.0,100,0.00,,,0.12,Weather View 32 v70,2013-05-15 23:34:00,
2013-05-15 19:45:00,50.0,50.0,29.75,WNW,292,0.0,7.0,100,0.00,,,0.12,Weather View 32 v70,2013-05-15 23:45:00,
2013-05-15 19:54:00,50.0,50.0,29.75,SSE,158,3.0,7.0,100,0.00,,,0.12,Weather View 32 v70,2013-05-15 23:54:00,
2013-05-15 20:00:00,50.0,50.0,29.74,SSE,158,1.0,7.0,100,0.00,,,0.12,Weather View 32 v70,2013-05-16 00:00:00,
2013-05-15 20:09:00,50.0,50.0,29.74,West,270,0.0,7.0,100,0.00,,,0.12,Weather View 32 v70,2013-05-16 00:09:00,
2013-05-15 20:19:00,50.0,50.0,29.73,South,180,1.0,7.0,100,0.00,,,0.12,Weather View 32 v70,2013-05-16 00:19:00,
2013-05-15 20:24:00,50.0,50.0,29.73,SE,135,1.0,7.0,100,0.00,,,0.12,Weather View 32 v70,2013-05-16 00:24:00,
2013-05-15 20:30:00,50.0,50.0,29.73,SSW,202,1.0,6.0,100,0.00,,,0.12,Weather View 32 v70,2013-05-16 00:30:00,
2013-05-15 20:34:00,50.0,50.0,29.73,SSW,202,1.0,6.0,100,0.00,,,0.12,Weather View 32 v70,2013-05-16 00:34:00,
2013-05-15 20:39:00,50.0,50.0,29.73,SSE,158,1.0,6.0,100,0.00,,,0.12,Weather View 32 v70,2013-05-16 00:39:00,
2013-05-15 20:54:00,50.0,50.0,29.73,SSW,202,2.0,5.0,100,0.00,,,0.12,Weather View 32 v70,2013-05-16 00:54:00,
2013-05-15 21:10:00,50.0,50.0,29.72,South,180,0.0,5.0,100,0.00,,,0.12,Weather View 32 v70,2013-05-16 01:10:00,
2013-05-15 21:19:00,50.0,50.0,29.72,SE,135,0.0,5.0,100,0.00,,,0.12,Weather View 32 v70,2013-05-16 01:19:00,
2013-05-15 21:29:00,50.0,50.0,29.72,SE,135,2.0,5.0,100,0.00,,,0.12,Weather View 32 v70,2013-05-16 01:29:00,
2013-05-15 21:35:00,50.0,50.0,29.72,South,180,1.0,5.0,100,0.00,,,0.12,Weather View 32 v70,2013-05-16 01:35:00,
2013-05-15 21:44:00,50.0,50.0,29.72,WNW,292,0.0,5.0,100,0.00,,,0.12,Weather View 32 v70,2013-05-16 01:44:00,
2013-05-15 21:55:00,50.0,50.0,29.73,West,270,0.0,5.0,100,0.00,,,0.12,Weather View 32 v70,2013-05-16 01:55:00,
2013-05-15 22:04:00,50.0,50.0,29.72,SE,135,1.0,5.0,100,0.00,,,0.12,Weather View 32 v70,2013-05-16 02:04:00,
2013-05-15 22:14:00,50.0,50.0,29.73,WSW,248,1.0,5.0,100,0.00,,,0.12,Weather View 32 v70,2013-05-16 02:14:00,
2013-05-15 22:29:00,50.0,50.0,29.72,SW,225,0.0,3.0,100,0.00,,,0.12,Weather View 32 v70,2013-05-16 02:29:00,
2013-05-15 22:39:00,50.0,50.0,29.71,WSW,248,1.0,3.0,100,0.00,,,0.12,Weather View 32 v70,2013-05-16 02:39:00,
2013-05-15 22:49:00,50.0,50.0,29.71,SW,225,1.0,3.0,100,0.00,,,0.12,Weather View 32 v70,2013-05-16 02:49:00,
2013-05-15 22:55:00,50.0,50.0,29.71,WSW,248,1.0,3.0,100,0.00,,,0.12,Weather View 32 v70,2013-05-16 02:55:00,
2013-05-15 23:10:00,50.0,50.0,29.71,WNW,292,0.0,3.0,100,0.00,,,0.12,Weather View 32 v70,2013-05-16 03:10:00,
2013-05-15 23:19:00,50.0,50.0,29.70,SE,135,0.0,3.0,100,0.00,,,0.12,Weather View 32 v70,2013-05-16 03:19:00,
2013-05-15 23:24:00,51.0,51.0,29.71,WSW,248,0.0,3.0,100,0.00,,,0.12,Weather View 32 v70,2013-05-16 03:24:00,
2013-05-15 23:35:00,51.0,51.0,29.71,West,270,1.0,3.0,100,0.00,,,0.12,Weather View 32 v70,2013-05-16 03:35:00,
2013-05-15 23:41:00,51.0,51.0,29.71,West,270,1.0,3.0,100,0.00,,,0.12,Weather View 32 v70,2013-05-16 03:41:00,
2013-05-15 23:54:00,51.0,51.0,29.70,SSW,202,1.0,3.0,100,0.00,,,0.12,Weather View 32 v70,2013-05-16 03:54:00,